Aeroporto :
LOGIN :

Iscrizione | Disclaimer

   EN    FR    IT 

 










Sommario :    VFR   VFR Marginale   IFR   IFR Intensivo   IFR Molto Intensivo
Visibilità : 
Base nubi : 
>= 8 km
>= 3000ft
5 / 8 km
1000 / 3000 ft
1500m / 5 km
500 / 1000 ft
800 / 1500m
200 / 500 ft
< 800m
< 200 ft
Simboli :   Temporali  Nebbia  Neve Forte  Precipitazioni Forti  Vento > 20 kt
SIGMETs :   Varie  Temporali  Ghiacco  Turbolenza  Onda orograficha  Ceneri Vulcaniche






- Altitudine del aeroporto : 465 ft


ENFB - Statfjord B Platform

ULTIMO METAR :
  • 270650Z AUTO 26020KT 9999NDV FEW018/// BKN054/// 10/07 Q1031 W///S5

METARs OBSOLETI :
  • 270620Z AUTO 26024KT 9999NDV FEW013/// BKN058/// 10/07 Q1031 W///S5
  • 270550Z AUTO 25023KT 9999NDV FEW015/// BKN056/// 09/07 Q1031 W///S5
  • 270520Z AUTO 24021KT 9999NDV SCT015/// BKN061/// 09/07 Q1031 W///S5
  • 270450Z AUTO 24022KT 9999NDV BKN021/// BKN024/// 09/07 Q1030 W///S5
  • 270420Z AUTO 24025KT 9999NDV BKN013/// 09/07 Q1030 W///S5
  • 270350Z AUTO 24025KT 9000NDV BKN013/// BKN059/// 09/08 Q1030 W///S5

TAF N/A



MetMap, La meteo Aeronautica in un colpo d'occhio ! - Copyright ORBIFLY Dicembre 2007 - Disclaimer

ORBIFLY MET'MAP TEAM :

Programmazione e sviluppo : Alexandra Zaïnal
Concezione : Baudouin d'Aumeries
Aiuto per la programmazione : Marc-Olivier Méhu
Supporto tecnico e logistico : Manuel Goepfert
Aiuto per la traduzione : Arnaldo La Scala

Contatto : metmap@orbifly.com




FONTI E CREDITI :

   NOAA